This is the latest recevied weather packets stored in our database for station/object AD5L. If no packets are shown the sender has not sent any weather packets the latest 10 day(s).
| Time | Temp. | Humidity | Pressure | Rain* | Wind** | Luminosity | Snow |
|---|---|---|---|---|---|---|---|
| 1777733022 | 16.67° C | 76% | 1023.4 hPa | 0 mm | - | - | - |
| 1777732403 | 16.11° C | 75% | 1023.3 hPa | 0 mm | - | - | - |
| 1777731812 | 15.56° C | 80% | 1023.2 hPa | 0 mm | - | - | - |
| 1777731203 | 15.56° C | 83% | 1023.1 hPa | 0 mm | - | - | - |
| 1777730611 | 14.44° C | 85% | 1023 hPa | 0 mm | - | - | - |
| 1777730002 | 13.89° C | 87% | 1022.9 hPa | 0 mm | - | - | - |
| 1777729413 | 13.33° C | 87% | 1022.7 hPa | 0 mm | - | - | - |
| 1777728804 | 12.78° C | 87% | 1022.6 hPa | 0 mm | - | - | - |
| 1777728215 | 12.22° C | 89% | 1022.4 hPa | 0 mm | - | - | - |
| 1777727607 | 12.22° C | 90% | 1022.4 hPa | 0 mm | - | - | - |
| 1777727016 | 11.67° C | 91% | 1022.3 hPa | 0 mm | - | - | - |
| 1777726407 | 11.11° C | 92% | 1022.2 hPa | 0 mm | - | - | - |
| 1777725818 | 10.56° C | 93% | 1022 hPa | 0 mm | - | - | - |
| 1777725209 | 10° C | 94% | 1021.9 hPa | 0 mm | - | - | - |
| 1777724615 | 9.44° C | 95% | 1021.7 hPa | 0 mm | - | - | - |
| 1777724006 | 8.89° C | 96% | 1021.5 hPa | 0 mm | - | - | - |
| 1777723417 | 8.89° C | 96% | 1021.3 hPa | 0 mm | - | - | - |
| 1777722808 | 8.89° C | 96% | 1021.1 hPa | 0 mm | - | - | - |
| 1777722219 | 8.89° C | 96% | 1020.8 hPa | 0 mm | - | - | - |
| 1777721631 | 8.89° C | 96% | 1020.7 hPa | 0 mm | - | - | - |
| 1777721020 | 8.89° C | 96% | 1020.7 hPa | 0 mm | - | - | - |
| 1777720402 | 8.89° C | 96% | 1020.6 hPa | 0 mm | - | - | - |
| 1777719812 | 8.89° C | 96% | 1020.3 hPa | 0 mm | - | - | - |
| 1777719204 | 8.89° C | 96% | 1020 hPa | 0 mm | - | - | - |
| 1777718615 | 8.89° C | 96% | 1019.6 hPa | 0 mm | - | - | - |
* Rain latest hour (hover to see other rain measurements)
** Current wind speed in m/s (hover to see current wind gust speed)